Lawton, OK

12:23 AM CDT on March 23, 2017 (GMT -0500)
Lawton-Fort Sill Regional

Weather History for KLAW - November, 2012

Change the Weather History Date:

Saturday, November 17, 2012

  Actual Average Record
Temperature  
Mean Temperature 48 °F -  
Max Temperature 64 °F 61 °F 82 °F (1954)
Min Temperature 32 °F 38 °F 13 °F (1959)
Degree Days  
Heating Degree Days 17    
Moisture  
Dew Point 30 °F    
Average Humidity 55    
Maximum Humidity 92    
Minimum Humidity 28    
Precipitation  
Precipitation 0.00 in - - ()
Sea Level Pressure  
Sea Level Pressure 30.31 in    
Wind  
Wind Speed 4 mph (SE)    
Max Wind Speed 13 mph    
Max Gust Speed 21 mph    
Visibility 10 miles    
Events      
Averages and records for this station are not official NWS values.
T = Trace of Precipitation, MM = Missing Value Source: NWS Daily Summary

Daily Weather History Graph

Daily Weather History Graph

Search for Another Location

Airport or City:

Trip Planner

Search our weather history database for the weather conditions in past years. The results will help you decide how hot, cold, wet, or windy it might be!

Date:

Astronomy

Nov. 17, 2012 Rise Set
Actual Time 7:09 AM CST 5:27 PM CST
Civil Twilight 6:42 AM CST 5:54 PM CST
Nautical Twilight 6:12 AM CST 6:24 PM CST
Astronomical Twilight 5:42 AM CST 6:54 PM CST
Moon 10:55 AM CST (11/17) 9:38 PM CST (11/17)
Length of Visible Light 11h 11m
Length of Day
10h 17m
Waxing Crescent, 20% of the Moon is Illuminated
Nov 17
Waxing Crescent
Nov 20
First Quarter
Nov 28
Full
Dec 6
Last Quarter
Dec 13
New

Hourly Weather History & Observations

Time (CST) Temp. Windchill Dew Point Humidity Pressure Visibility Wind Dir Wind Speed Gust Speed Precip Events Conditions
12:53 AM 36.0 °F - 30.9 °F 82% 30.36 in 10.0 mi Calm Calm - N/A   Clear
1:53 AM 34.0 °F 31.0 °F 30.0 °F 85% 30.35 in 10.0 mi NNW 3.5 mph - N/A   Clear
2:53 AM 33.1 °F - 30.0 °F 89% 30.35 in 10.0 mi Calm Calm - N/A   Clear
3:53 AM 33.1 °F - 30.0 °F 89% 30.35 in 10.0 mi Calm Calm - N/A   Clear
4:53 AM 35.1 °F - 30.9 °F 85% 30.35 in 10.0 mi Calm Calm - N/A   Clear
6:53 AM 32.0 °F - 28.9 °F 88% 30.38 in 8.0 mi Calm Calm - N/A   Clear
7:53 AM 33.1 °F - 30.9 °F 92% 30.40 in 10.0 mi Calm Calm - N/A   Clear
8:53 AM 39.9 °F - 34.0 °F 79% 30.41 in 10.0 mi Calm Calm - N/A   Clear
9:53 AM 50.0 °F - 34.0 °F 54% 30.39 in 10.0 mi SE 9.2 mph - N/A   Clear
10:53 AM 57.0 °F - 32.0 °F 39% 30.38 in 10.0 mi SSE 12.7 mph - N/A   Clear
11:53 AM 59.0 °F - 30.9 °F 35% 30.35 in 10.0 mi South 11.5 mph 19.6 mph N/A   Clear
12:53 PM 61.0 °F - 32.0 °F 34% 30.32 in 10.0 mi South 12.7 mph - N/A   Clear
1:53 PM 64.0 °F - 30.9 °F 29% 30.28 in 10.0 mi SE 12.7 mph 20.7 mph N/A   Clear
2:53 PM 64.0 °F - 30.0 °F 28% 30.26 in 10.0 mi SE 11.5 mph - N/A   Clear
3:53 PM 63.0 °F - 28.9 °F 28% 30.26 in 10.0 mi SSE 10.4 mph - N/A   Clear
4:53 PM 62.1 °F - 28.0 °F 28% 30.25 in 10.0 mi SE 10.4 mph - N/A   Clear
5:53 PM 57.0 °F - 27.0 °F 32% 30.26 in 10.0 mi SE 8.1 mph - N/A   Clear
6:53 PM 53.1 °F - 28.0 °F 38% 30.26 in 10.0 mi SE 8.1 mph - N/A   Clear
7:53 PM 50.0 °F - 30.0 °F 46% 30.26 in 10.0 mi SE 6.9 mph - N/A   Clear
8:53 PM 50.0 °F - 30.9 °F 48% 30.25 in 10.0 mi SE 8.1 mph - N/A   Clear
9:53 PM 51.1 °F - 30.0 °F 44% 30.26 in 10.0 mi SSE 8.1 mph - N/A   Clear
10:53 PM 51.1 °F - 30.9 °F 46% 30.25 in 10.0 mi SE 9.2 mph - N/A   Scattered Clouds
11:53 PM 48.9 °F - 30.9 °F 50% 30.25 in 10.0 mi SSE 6.9 mph - N/A   Clear